Belden, Nebraska
Current Conditions -  °F | °C
As of 3:35 PM on Thursday 23 Oct 2014 (Local Time) from KLCG Reporting Station
Clear Clear  
Wind Chill: 71°   Ceiling: Unl
Heat Index: 71°   Visibility: 10mi
Dew Point: 46°   Wind: 12mph
Humidity: 40%   Direction: 190°S
Pressure: 29.99"   Gusts: 16mph
Location:  42.41°N, 97.21°W
Report Text: KLCG 232035Z AUTO 19010G14KT 10SM CLR 22/08 A2999 RMK AO2 T02180077
Loading
Personal Weather Stations






























Interactive Weather Map
Tropical Storm Tracking
New forecast layout! Learn more

10-Day Weather Forecast

Advertisements
Track Severe Weather on mobile